[[{"header":{"parameterUnit":"m.s-1","parameterCategory":1,"la1":30.2991,"la2":30.254,"lo1":-89.0895,"lo2":-89.0444,"dy":0.0017,"dx":0.0017,"nx":28,"ny":28,"refTime":"2023-10-28T03:00:00:Z","depth":0,"parameterNumber":2,"parameterNumberName":"U-component_of_WINDS"},"data":[0,0,0,0,0,0,0,0,0,0,0,0,0,0,0,0,0,0,0,0,0,0,0,0,0,0,0,0,0,0,0,0,0,0,0,0,0,0,0,0,0,0,0,0,0,0,0,0,0,0,0,0,0,0,0,0,0,0,-2.114,-2.1141,0,-2.1219,-2.122,-2.1221,-2.1177,-2.1175,-2.1173,-2.1171,-2.1252,-2.1256,-2.126,0,0,0,0,0,0,0,0,0,0,0,0,0,-2.0952,-2.0956,-2.114,-2.1141,-2.1142,-2.1219,-2.122,-2.1221,-2.1177,-2.1175,-2.1172,-2.117,-2.125,-2.1255,-2.126,0,0,0,0,0,0,0,0,0,0,0,0,0,-2.1033,-2.0957,-2.114,-2.1129,-2.1129,-2.1219,-2.122,-2.1222,-2.1178,-2.1175,-2.1171,-2.1168,-2.1249,-2.1255,-2.1261,-2.1366,0,0,-2.128,-2.1283,0,0,0,0,0,0,0,0,-2.1028,-2.104,-2.113,-2.113,-2.113,-2.1185,-2.1184,-2.127,-2.1179,-2.1159,-2.117,-2.1167,-2.1232,-2.124,-2.1262,-2.1369,-2.1373,-2.1281,-2.1285,-2.1287,-2.1289,0,0,0,0,0,0,0,-2.1023,-2.1036,-2.1171,-2.1131,-2.1131,-2.1121,-2.1129,-2.12,-2.1213,-2.1161,-2.1158,-2.1168,-2.1232,-2.1256,-2.1263,-2.1374,-2.1281,-2.1286,-2.129,-2.1293,-2.1575,-2.1579,0,0,0,0,0,0,-2.1018,-2.1032,-2.1169,-2.1174,-2.107,-2.1127,-2.1136,-2.1171,-2.1212,-2.1215,-2.1171,-2.1165,-2.1247,-2.1256,-2.1266,-2.1393,-2.1287,-2.1293,-2.1297,-2.1572,-2.1576,-2.158,0,0,0,0,0,0,-2.1014,-2.103,-2.1165,-2.1102,-2.1118,-2.1134,-2.1173,-2.1174,-2.1198,-2.122,-2.1222,-2.1193,-2.1244,-2.1257,-2.1342,-2.1395,-2.1296,-2.1302,-2.1567,-2.1573,-2.1578,-2.1647,0,0,0,0,0,0,-2.1009,-2.1029,-2.1068,-2.1103,-2.1122,-2.124,-2.1176,-2.1178,-2.1209,-2.1203,-2.1241,-2.1244,-2.1243,-2.1333,-2.1348,-2.1402,-2.1307,-2.1563,-2.157,-2.1577,-2.164,-2.1654,-2.1666,0,0,0,0,0,-2.1002,-2.1083,-2.107,-2.1087,-2.1171,-2.1243,-2.1253,-2.125,-2.1213,-2.1253,-2.1268,-2.1243,-2.1387,-2.1342,-2.1359,-2.1415,-2.1559,-2.1568,-2.1576,-2.1634,-2.1651,-2.1666,0,0,0,0,0,0,-2.1053,-2.1088,-2.1073,-2.1169,-2.1203,-2.1235,-2.1285,-2.1268,-2.1314,-2.1306,-2.1301,-2.131,-2.1399,-2.1415,-2.1364,-2.1521,-2.1468,-2.148,-2.1506,-2.1523,-2.1536,-2.1529,-2.1312,0,0,0,0,0,-2.1076,-2.1131,-2.1158,-2.1239,-2.1258,-2.1269,-2.13,-2.1295,-2.133,-2.1345,-2.1365,-2.1401,-2.1454,-2.149,-2.154,-2.1643,-2.1652,-2.1691,-2.1704,-2.1715,-2.1725,-2.1783,-2.1801,-2.1608,-2.1608,-2.1608,0,0,-2.1122,-2.1148,-2.1183,-2.125,-2.1277,-2.1335,-2.1281,-2.1344,-2.1387,-2.1354,-2.1436,-2.1453,-2.1492,-2.1588,-2.1631,-2.1604,-2.1781,-2.1725,-2.1734,-2.1738,-2.1794,-2.1812,-2.1828,-2.1614,-2.1613,-2.1612,0,0,-2.1237,-2.1261,-2.1333,-2.1361,-2.1402,-2.141,-2.1427,-2.1463,-2.1473,-2.1556,-2.1533,-2.1585,-2.1677,-2.1707,-2.1734,-2.1865,-2.1844,-2.1882,-2.195,-2.2007,-2.2022,-2.2036,-2.2084,-2.2101,-2.1892,-2.1893,-2.1893,0,-2.1289,-2.1375,-2.1372,-2.1437,-2.1469,-2.1443,-2.1517,-2.1544,-2.16,-2.1623,-2.1593,-2.171,-2.1735,-2.1838,-2.1871,-2.1893,-2.1914,-2.1876,-2.2021,-2.2034,-2.2047,-2.2092,-2.211,-2.1897,-2.1896,-2.1896,-2.1895,0,-2.1438,-2.1499,-2.1552,-2.1607,-2.1645,-2.1714,-2.1723,-2.1762,-2.1755,-2.1766,-2.1852,-2.1882,-2.1939,-2.1963,-2.1956,-2.2067,-2.205,-2.2021,-2.1967,-2.2069,-2.2112,-2.213,-2.1903,-2.1901,-2.19,-2.1899,0,0,-2.1583,-2.1639,-2.1659,-2.1685,-2.1731,-2.1778,-2.1848,-2.1904,-2.1939,-2.1979,-2.2038,-2.2119,-2.2093,-2.2125,-2.2121,-2.2172,-2.2276,-2.2137,-2.2138,-2.2162,-2.2402,-2.2423,-2.2443,-2.2263,-2.2267,-2.2269,-2.2399,0,-2.1701,-2.1822,-2.1824,-2.1935,-2.1993,-2.1972,-2.2033,-2.2068,-2.2082,-2.2133,-2.2148,-2.2206,-2.2167,-2.2186,-2.2235,-2.2253,-2.2324,-2.2244,-2.2319,-2.2321,-2.2309,-2.2465,-2.2487,-2.2607,-2.2415,-2.2418,-2.242,0,-2.1853,-2.1901,-2.2019,-2.2059,-2.2083,-2.2138,-2.2192,-2.2241,-2.2282,-2.2289,-2.2326,-2.2317,-2.2389,-2.2335,-2.2436,-2.2382,-2.2413,-2.2427,-2.2432,-2.2438,-2.2376,-2.2476,-2.2645,-2.2664,-2.2446,-2.2444,-2.2442,0,-2.1948,-2.2042,-2.2125,-2.2148,-2.2197,-2.2237,-2.2259,-2.2297,-2.2332,-2.238,-2.2403,-2.2459,-2.2489,-2.2533,-2.254,-2.25,-2.2643,-2.2588,-2.2651,-2.2651,-2.268,-2.2678,-2.2858,-2.2701,-2.2701,-2.2701,-2.27,0,-2.2079,-2.2152,-2.2169,-2.222,-2.2302,-2.2304,-2.2386,-2.2406,-2.2441,-2.2496,-2.2482,-2.2535,-2.254,-2.2595,-2.2601,-2.2685,-2.2699,-2.2707,-2.2708,-2.2708,-2.2707,-2.2728,-2.272,-2.2706,-2.2705,-2.2704,-2.2703,0,-2.2198,-2.2212,-2.2301,-2.2342,-2.2354,-2.2413,-2.2449,-2.2499,-2.2512,-2.2583,-2.26,-2.2622,-2.2687,-2.2698,-2.2773,-2.2778,-2.2879,-2.2871,-2.2865,-2.2864,-2.2926,-2.292,-2.3124,-2.3152,-2.2978,-2.298,-2.2981,0,-2.228,-2.2336,-2.2384,-2.2421,-2.2446,-2.2505,-2.2542,-2.2547,-2.2587,-2.264,-2.2684,-2.2748,-2.2798,-2.2903,-2.2926,-2.2984,-2.2978,-2.3046,-2.2986,-2.2986,-2.298,-2.2976,-2.2983,-2.3056,-2.3058,-2.306,-2.3061,0,-2.2425,-2.243,-2.2483,-2.2541,-2.2586,-2.2631,-2.2674,-2.2705,-2.2717,-2.2762,-2.2829,-2.2869,-2.2948,-2.3011,-2.3071,-2.3095,-2.3081,-2.308,-2.3098,-2.3098,-2.3093,-2.3098,-2.2896,-2.3075,-2.3073,-2.3072,-2.3072,-2.3071,-2.2528,-2.2578,-2.262,-2.2682,-2.2715,-2.2757,-2.2807,-2.2828,-2.2884,-2.2949,-2.295,-2.3023,-2.3066,-2.3145,-2.3173,-2.3232,-2.321,-2.3235,-2.3242,-2.3248,-2.3254,-2.3085,-2.3242,-2.3242,-2.3242,-2.3241,-2.3241,0,-2.2672,-2.2699,-2.2756,-2.2818,-2.2867,-2.2851,-2.2899,-2.2942,-2.3006,-2.3048,-2.31,-2.3178,-2.3241,-2.3271,-2.3333,-2.3374,-2.337,-2.3391,-2.3387,-2.3394,-2.3269,-2.3248,-2.3393,-2.3393,-2.3393,-2.3393,-2.3393,-2.3393,-2.2752,-2.2837,-2.2848,-2.2951,-2.2978,-2.305,-2.3079,-2.3119,-2.3152,-2.3241,-2.3293,-2.3313,-2.3351,-2.3417,-2.3474,-2.3482,-2.3506,-2.353,-2.3534,-2.3417,-2.3402,-2.3387,-2.3367,-2.3535,-2.3535,-2.3653,-2.3654,-2.3655]},{"header":{"parameterUnit":"m.s-1","parameterCategory":1,"la1":30.2991,"la2":30.254,"lo1":-89.0895,"lo2":-89.0444,"dy":0.0017,"dx":0.0017,"nx":28,"ny":28,"refTime":"2023-10-28T03:00:00:Z","depth":0,"parameterNumber":3,"parameterNumberName":"V-component_of_WINDS"},"data":[0,0,0,0,0,0,0,0,0,0,0,0,0,0,0,0,0,0,0,0,0,0,0,0,0,0,0,0,0,0,0,0,0,0,0,0,0,0,0,0,0,0,0,0,0,0,0,0,0,0,0,0,0,0,0,0,0,0,0.4979,0.498,0,0.5059,0.506,0.5061,0.5166,0.5167,0.5169,0.5171,0.5249,0.525,0.525,0,0,0,0,0,0,0,0,0,0,0,0,0,0.4916,0.4917,0.4979,0.498,0.4981,0.5059,0.506,0.5061,0.5165,0.5167,0.5169,0.5171,0.5249,0.525,0.525,0,0,0,0,0,0,0,0,0,0,0,0,0,0.4964,0.4917,0.4979,0.5042,0.5049,0.5058,0.506,0.5061,0.5165,0.5167,0.517,0.5172,0.5249,0.525,0.525,0.5203,0,0,0.5252,0.5253,0,0,0,0,0,0,0,0,0.4961,0.4966,0.5032,0.5038,0.5045,0.5105,0.5067,0.5108,0.5164,0.5121,0.5171,0.5174,0.5199,0.5204,0.5213,0.5206,0.521,0.5253,0.5253,0.5253,0.5253,0,0,0,0,0,0,0,0.4958,0.4964,0.501,0.5033,0.5041,0.5067,0.5077,0.5075,0.5144,0.5125,0.5133,0.5141,0.5203,0.5212,0.5216,0.5211,0.5253,0.5253,0.5254,0.5254,0.5171,0.5169,0,0,0,0,0,0,0.4945,0.496,0.5008,0.5013,0.5009,0.5066,0.5077,0.5083,0.5144,0.5156,0.5138,0.5145,0.521,0.5215,0.5219,0.5168,0.5253,0.5254,0.5254,0.5174,0.5171,0.5168,0,0,0,0,0,0,0.4944,0.4949,0.5005,0.4989,0.4998,0.5064,0.507,0.5083,0.5093,0.5155,0.5168,0.5135,0.5212,0.5218,0.5207,0.5172,0.5254,0.5255,0.5177,0.5173,0.5169,0.5065,0,0,0,0,0,0,0.4941,0.4947,0.493,0.4988,0.4998,0.4991,0.5068,0.5083,0.5094,0.5104,0.5155,0.5166,0.5214,0.5205,0.5207,0.5175,0.5255,0.518,0.5175,0.5171,0.5072,0.5058,0.5046,0,0,0,0,0,0.4939,0.4896,0.4928,0.4933,0.4978,0.4989,0.4995,0.5052,0.5091,0.5074,0.5114,0.5164,0.5176,0.5203,0.5206,0.5173,0.5183,0.5177,0.5171,0.5078,0.5061,0.5047,0,0,0,0,0,0,0.4831,0.4905,0.4941,0.4916,0.4946,0.5006,0.4986,0.5032,0.505,0.5058,0.5128,0.5139,0.5119,0.5146,0.5174,0.5132,0.5187,0.5181,0.5115,0.51,0.5087,0.508,0.5256,0,0,0,0,0,0.4805,0.4808,0.4872,0.4844,0.4857,0.4919,0.4926,0.4968,0.5001,0.5013,0.5053,0.5082,0.5093,0.5098,0.5111,0.5077,0.509,0.5057,0.5044,0.5033,0.5027,0.5012,0.4998,0.5149,0.5149,0.5149,0,0,0.4749,0.479,0.4787,0.4823,0.4851,0.4852,0.4928,0.4926,0.4928,0.5013,0.5005,0.5035,0.5072,0.505,0.5042,0.5071,0.4989,0.5025,0.5016,0.5016,0.5005,0.499,0.4978,0.5145,0.5145,0.5146,0,0,0.465,0.4681,0.4661,0.4688,0.473,0.4772,0.4767,0.4822,0.4846,0.484,0.4903,0.4907,0.4923,0.4948,0.4962,0.4875,0.4922,0.4877,0.481,0.4795,0.4783,0.4773,0.4742,0.473,0.4871,0.4871,0.4871,0,0.4575,0.4581,0.4645,0.464,0.4654,0.4733,0.4714,0.4736,0.4779,0.4787,0.482,0.4844,0.4875,0.486,0.4839,0.4848,0.4845,0.4871,0.478,0.477,0.4761,0.4733,0.4721,0.4866,0.4866,0.4867,0.4867,0,0.4488,0.449,0.447,0.4511,0.4523,0.4511,0.4574,0.4578,0.462,0.4659,0.4652,0.4692,0.4716,0.4716,0.4755,0.4707,0.4724,0.4767,0.4824,0.474,0.4714,0.4704,0.4857,0.4859,0.4861,0.4862,0,0,0.4319,0.4399,0.439,0.4411,0.4464,0.4467,0.4459,0.4484,0.4486,0.4514,0.4509,0.4523,0.4564,0.4581,0.4625,0.4611,0.4541,0.4657,0.4659,0.4633,0.449,0.4456,0.4442,0.4573,0.4571,0.457,0.4487,0,0.4229,0.422,0.4279,0.4254,0.4258,0.4335,0.4328,0.436,0.4396,0.4405,0.4446,0.4454,0.4508,0.4519,0.4509,0.4551,0.4512,0.4558,0.4568,0.4568,0.4555,0.4429,0.4393,0.4312,0.4477,0.4475,0.4474,0,0.4121,0.4145,0.4121,0.4178,0.4182,0.4174,0.4203,0.421,0.4248,0.4276,0.4296,0.4347,0.4344,0.4399,0.4395,0.4425,0.4433,0.4455,0.4453,0.4455,0.4515,0.4427,0.4288,0.4275,0.4459,0.446,0.4461,0,0.4001,0.4027,0.4017,0.4032,0.4097,0.4091,0.4118,0.4159,0.417,0.4195,0.4204,0.4227,0.4239,0.4256,0.4313,0.4348,0.4303,0.4362,0.4325,0.4323,0.431,0.431,0.417,0.4317,0.4317,0.4318,0.4318,0,0.3893,0.3875,0.3964,0.3956,0.3939,0.4008,0.3989,0.4024,0.406,0.4062,0.4129,0.4129,0.4205,0.4213,0.4257,0.4248,0.4253,0.4275,0.4287,0.4268,0.4265,0.4273,0.428,0.4315,0.4315,0.4316,0.4316,0,0.3754,0.3813,0.3806,0.387,0.3886,0.387,0.3925,0.3921,0.3964,0.3965,0.3969,0.4035,0.4048,0.4108,0.4134,0.4165,0.414,0.4164,0.4127,0.4134,0.4094,0.4096,0.3953,0.3938,0.4095,0.4093,0.4092,0,0.3681,0.3669,0.3732,0.3739,0.3763,0.3772,0.3785,0.3854,0.3864,0.3909,0.39,0.3919,0.3938,0.3957,0.4007,0.4028,0.4053,0.4001,0.4056,0.4039,0.4052,0.4051,0.405,0.3988,0.3986,0.3985,0.3983,0,0.3544,0.3575,0.3591,0.3618,0.3631,0.3655,0.3684,0.3685,0.3761,0.377,0.3785,0.38,0.383,0.3848,0.3879,0.3907,0.3957,0.3966,0.3959,0.3939,0.3918,0.3928,0.4093,0.3969,0.397,0.3971,0.3972,0.3973,0.3436,0.3429,0.3474,0.349,0.3519,0.3544,0.3545,0.3588,0.3603,0.3632,0.3672,0.3683,0.3724,0.3771,0.3795,0.3804,0.3833,0.3821,0.3819,0.3814,0.3805,0.3918,0.381,0.3811,0.3811,0.3811,0.3812,0,0.3302,0.3335,0.335,0.3388,0.3401,0.345,0.3485,0.3492,0.3501,0.3535,0.3554,0.3572,0.3592,0.3644,0.3669,0.3666,0.369,0.367,0.367,0.3676,0.3779,0.3782,0.365,0.365,0.365,0.365,0.3651,0.3651,0.3234,0.3227,0.3262,0.327,0.3304,0.3315,0.3331,0.3355,0.3383,0.3401,0.3418,0.3453,0.3495,0.3524,0.3544,0.3559,0.3564,0.3536,0.3559,0.3653,0.3669,0.3683,0.3687,0.3537,0.3537,0.3456,0.3455,0.3454]}]]